This is the latest recevied weather packets stored in our database for station/object KK4WXG. If no packets are shown the sender has not sent any weather packets the latest 10 day(s).
| Time | Temp. | Humidity | Pressure | Rain* | Wind** | Luminosity | Snow |
|---|---|---|---|---|---|---|---|
| 1777912478 | 21.11° C | 40% | 1011.7 hPa | 0 mm | - | 976 W/m² | - |
| 1777912175 | 21.67° C | 39% | 1011.9 hPa | 0 mm | - | 972 W/m² | - |
| 1777911871 | 21.11° C | 39% | 1011.8 hPa | 0 mm | - | 972 W/m² | - |
| 1777911568 | 20.56° C | 42% | 1012.1 hPa | 0 mm | - | 969 W/m² | - |
| 1777911264 | 21.11° C | 37% | 1012.4 hPa | 0 mm | - | 962 W/m² | - |
| 1777910961 | 20.56° C | 41% | 1012.3 hPa | 0 mm | - | 959 W/m² | - |
| 1777910659 | 21.11° C | 39% | 1012.3 hPa | 0 mm | - | 950 W/m² | - |
| 1777910355 | 20.56° C | 42% | 1012.5 hPa | 0 mm | - | 946 W/m² | - |
| 1777910052 | 20.56° C | 39% | 1012.6 hPa | 0 mm | - | 942 W/m² | - |
| 1777909749 | 20° C | 38% | 1012.4 hPa | 0 mm | - | 941 W/m² | - |
| 1777909446 | 20° C | 43% | 1012.5 hPa | 0 mm | - | 930 W/m² | - |
| 1777909144 | 20.56° C | 39% | 1012.6 hPa | 0 mm | - | 919 W/m² | - |
| 1777908842 | 20° C | 43% | 1012.5 hPa | 0 mm | - | 909 W/m² | - |
| 1777908538 | 20° C | 38% | 1012.6 hPa | 0 mm | - | 899 W/m² | - |
| 1777908235 | 20° C | 41% | 1012.8 hPa | 0 mm | - | 894 W/m² | - |
| 1777907932 | 19.44° C | 38% | 1013 hPa | 0 mm | - | 881 W/m² | - |
| 1777907627 | 20° C | 44% | 1012.8 hPa | 0 mm | - | 870 W/m² | - |
| 1777907323 | 19.44° C | 40% | 1013 hPa | 0 mm | - | 856 W/m² | - |
| 1777907019 | 19.44° C | 40% | 1013.3 hPa | 0 mm | - | 846 W/m² | - |
| 1777906717 | 18.89° C | 42% | 1013 hPa | 0 mm | - | 834 W/m² | - |
| 1777906413 | 18.89° C | 44% | 1013 hPa | 0 mm | - | 824 W/m² | - |
| 1777906110 | 19.44° C | 41% | 1013.2 hPa | 0 mm | - | 816 W/m² | - |
| 1777905806 | 18.89° C | 41% | 1013 hPa | 0 mm | - | 807 W/m² | - |
| 1777905504 | 18.89° C | 40% | 1012.9 hPa | 0 mm | - | 794 W/m² | - |
| 1777905201 | 18.89° C | 39% | 1013.4 hPa | 0 mm | - | 780 W/m² | - |
* Rain latest hour (hover to see other rain measurements)
** Current wind speed in m/s (hover to see current wind gust speed)